Location: Montebello
(37.3256°N, 122.1789°W)
Time: 21:26:50
(UTC-08:00)

Hubble Space Telescope - Visible Passes

Search period start: 22 November 2017 00:00
Search period end: 02 December 2017 00:00
Orbit: 537 x 541 km, 28.5° (Epoch: 22 November)

Date Brightness Start Highest point End Pass type
(mag) Time Alt. Az. Time Alt. Az. Time Alt. Az.
22 Nov 3.8 04:01:41 11° SE 04:01:41 11° SE 04:02:00 10° ESE visible
22 Nov 2.6 05:37:03 14° SW 05:39:27 22° S 05:42:39 10° SE visible
23 Nov 2.7 05:27:28 16° SW 05:29:09 20° S 05:32:13 10° SE visible
24 Nov 2.7 05:17:54 17° SSW 05:18:50 18° SSW 05:21:44 10° SSE visible
25 Nov 2.8 05:08:19 16° SSW 05:08:31 16° SSW 05:11:08 10° SSE visible
26 Nov 3.1 04:58:45 14° S 04:58:45 14° S 05:00:26 10° SSE visible
27 Nov 3.4 04:49:12 11° S 04:49:12 11° S 04:49:30 10° S visible
